Theta_e
340 340 327 324 313 313 308 311 319 323 322 327 326 323 325 330 322 311 342 346 348 348 350 349 353 355 353 351 354 355 358 357 358 358 358 359 359 357 356 357 357 355 354 352 352 352 351 351 350
325 329 320 312 308 302 306 318 318 323 328 330 328 326 328 328 338 338 338 347 349 348 348 348 353 354 352 353 354 356 357 356 357 357 357 357 357 356 355 356 354 353 351 349 348 349 349 350 350
328 320 310 304 303 301 305 319 321 324 325 326 324 328 331 331 339 340 343 347 348 345 347 349 353 355 353 353 354 355 356 356 357 356 356 357 356 356 356 355 354 351 348 347 347 347 348 350 349
315 311 307 301 297 308 312 321 324 324 323 325 326 322 335 344 342 344 345 347 345 343 344 353 355 355 353 354 354 354 355 356 357 356 356 356 356 355 354 352 351 350 348 349 349 349 349 349 350
308 305 298 295 309 318 321 324 326 320 322 322 324 328 332 342 345 344 344 346 345 343 345 349 355 354 354 354 354 354 354 355 356 354 355 355 355 354 353 352 351 351 351 351 351 353 353 353 352
299 301 295 301 309 321 323 325 323 322 324 329 330 329 333 343 342 345 345 343 347 345 345 348 354 354 355 354 354 354 355 356 356 355 355 354 354 354 353 353 353 352 353 352 352 355 354 353 353
298 295 294 305 313 319 322 326 322 321 320 328 332 325 333 340 346 347 345 344 344 344 342 343 346 350 354 354 354 354 354 355 356 356 356 354 354 354 354 354 354 354 355 355 355 355 355 354 353
300 297 293 299 311 313 323 322 318 322 324 331 335 323 327 339 347 346 344 342 340 340 340 337 339 342 343 346 353 353 354 354 354 354 354 354 354 354 354 355 354 354 356 357 357 356 355 355 354
298 292 290 304 312 315 321 318 326 327 324 324 327 331 338 344 344 342 340 339 341 340 336 336 337 337 339 342 347 352 353 354 354 353 355 353 346 344 347 350 354 356 357 357 357 356 356 357 357
295 291 302 312 319 318 320 322 323 323 320 321 324 328 335 339 338 327 323 320 320 322 325 323 333 336 337 345 342 341 344 344 344 345 344 343 342 341 345 347 352 356 357 358 357 358 358 357 348
292 297 319 321 323 323 322 321 325 320 317 319 318 320 323 323 322 320 319 317 315 317 319 319 321 325 335 337 338 340 341 341 342 342 341 339 341 340 340 339 340 341 347 346 347 345 342 339 338
293 311 323 325 327 321 321 325 317 316 315 320 319 319 319 317 316 317 316 315 315 315 315 317 317 319 323 327 333 339 337 337 337 337 336 336 336 337 337 337 336 335 336 335 336 335 334 334 334
293 311 325 327 321 321 322 315 311 310 315 317 317 316 314 313 313 314 314 314 314 312 313 314 315 315 318 322 330 337 334 329 325 326 327 329 332 336 337 335 336 338 338 337 335 336 335 332 332
300 322 323 324 322 318 311 312 312 310 313 311 312 311 312 312 312 311 311 311 311 311 311 313 314 314 317 320 325 326 323 322 320 320 323 323 327 329 329 325 326 328 329 330 332 331 334 335 335
322 316 315 319 316 315 316 309 307 310 311 308 308 309 310 310 311 309 310 310 310 311 311 311 314 313 314 317 319 319 319 318 317 318 319 319 318 319 319 316 317 320 321 321 323 325 327 327 333
308 308 306 312 314 314 311 307 307 310 308 306 307 308 309 310 311 311 310 310 310 309 309 311 313 312 312 313 315 316 315 315 315 316 317 318 317 317 315 314 314 316 317 317 319 320 320 324 322
293 302 300 309 313 311 307 302 307 309 308 306 305 306 307 308 310 312 314 313 310 309 308 308 310 310 311 312 313 314 312 312 314 314 315 316 316 316 314 313 313 315 315 314 314 315 314 320 314
287 300 294 308 312 309 303 302 307 307 307 305 304 304 304 305 308 310 311 311 310 310 308 308 308 308 310 311 312 311 310 310 312 313 311 312 312 312 311 310 311 312 310 310 310 311 312 316 312
292 291 296 308 308 303 304 302 305 306 304 302 301 301 302 303 308 310 311 311 311 310 309 310 306 306 307 308 309 309 308 308 308 310 310 310 310 310 308 308 307 307 305 306 306 307 307 309 308
292 290 289 293 304 304 300 300 304 305 303 303 301 300 300 301 303 306 307 307 307 307 307 307 306 306 306 307 307 308 307 307 307 308 307 307 306 307 308 305 303 303 301 301 301 302 302 304 305
291 289 290 293 301 302 301 297 299 303 302 302 302 302 301 301 301 303 304 304 305 306 309 308 307 306 307 307 309 307 307 305 303 302 303 303 304 304 303 303 301 300 299 298 299 299 298 297 300
290 296 295 299 296 292 300 289 295 300 299 300 299 299 299 300 301 302 302 302 302 303 305 307 307 306 307 305 302 301 299 299 298 298 299 301 302 302 302 301 300 299 298 297 297 298 297 296 294
296 301 296 296 295 293 294 288 291 299 296 298 297 297 298 299 300 301 301 302 302 303 303 303 303 303 302 302 301 300 299 298 298 297 297 298 299 300 301 299 298 297 297 296 296 295 294 294 293
301 296 292 291 290 286 293 294 288 295 300 300 297 298 298 298 299 300 301 301 301 302 302 302 302 301 302 302 301 299 298 297 296 296 295 295 296 296 298 298 297 296 295 295 294 294 293 292 292
294 288 284 282 284 285 292 290 292 296 301 301 296 297 298 297 297 298 298 299 301 300 300 301 300 299 300 301 300 300 298 297 296 295 295 294 294 294 294 295 295 294 295 295 294 292 292 291 290
293 290 285 281 281 284 291 288 290 294 298 300 299 298 297 295 297 299 298 298 299 299 299 299 299 298 299 299 298 298 298 298 296 296 295 295 294 295 295 295 295 295 296 295 293 292 292 291 290
295 289 292 287 285 284 285 289 293 295 295 296 296 296 294 295 297 298 299 299 297 298 299 299 298 299 299 298 298 297 297 298 296 295 295 295 294 297 297 296 295 295 295 294 292 291 291 290 289
299 300 289 287 281 280 286 286 286 287 290 293 294 293 294 297 297 297 297 298 299 298 298 300 300 298 299 299 299 298 299 297 296 297 295 294 294 294 296 295 295 294 294 293 292 291 291 290 289
299 295 295 292 289 283 282 286 295 289 291 292 292 293 294 295 295 294 295 297 298 299 300 299 299 301 301 301 301 299 299 296 296 296 295 293 293 293 294 295 294 294 293 292 291 290 292 291 290
303 298 295 290 288 292 288 286 291 290 290 292 293 294 294 295 295 296 297 298 296 297 298 298 298 298 300 300 299 299 299 296 295 294 294 293 292 293 293 295 294 294 293 292 291 291 291 290 289
Wind_Speed
5 6 1 1 3 6 4 5 2 5 5 1 1 4 7 13 3 3 5 8 14 9 7 14 16 14 14 14 13 12 12 12 12 12 12 11 12 12 11 10 9 9 8 7 7 8 8 7 7
4 2 4 2 4 4 1 3 4 1 5 4 4 4 9 6 6 10 5 10 10 7 6 9 16 15 15 14 13 11 12 12 12 11 12 12 11 10 9 8 8 7 5 3 3 5 5 6 5
3 1 4 5 3 2 3 2 2 7 7 5 2 3 5 3 7 5 9 12 9 6 6 8 16 14 15 15 14 12 11 11 11 12 11 10 9 7 5 5 4 3 2 2 2 3 3 4 3
4 4 5 5 2 2 5 8 7 6 9 7 3 7 6 6 6 9 14 12 10 7 5 11 14 14 15 14 14 12 10 10 12 11 10 8 7 6 3 3 2 0 2 3 4 3 2 2 2
4 3 4 4 3 2 7 3 7 8 4 6 2 4 4 4 16 16 14 13 11 7 6 8 14 14 14 13 13 12 11 9 8 10 8 6 5 4 3 3 3 4 6 6 7 7 4 3 5
5 4 5 1 2 3 5 5 2 7 5 9 12 10 4 9 17 13 12 11 9 10 7 6 13 13 12 13 13 12 10 9 9 9 9 6 5 4 4 5 6 7 8 9 10 9 7 5 7
7 5 4 5 3 3 4 1 4 13 4 5 1 4 7 8 9 11 9 6 5 4 5 4 4 8 12 11 11 11 9 7 6 5 5 6 6 5 7 8 9 10 10 11 11 11 10 9 8
6 6 4 4 6 6 7 1 1 3 3 6 4 5 6 9 13 11 8 7 7 5 5 4 2 1 2 3 10 10 9 8 6 6 6 6 7 8 9 9 9 13 12 12 13 13 12 11 9
4 6 3 7 9 6 6 6 2 2 0 4 7 2 7 17 15 13 10 7 5 6 5 2 1 1 1 1 3 6 7 8 8 8 8 6 3 5 7 9 14 14 13 13 13 13 13 12 11
6 5 8 7 6 10 7 6 4 2 2 3 10 14 16 15 13 11 10 8 9 8 6 5 2 1 2 3 3 2 3 3 3 4 5 3 4 5 7 10 13 14 13 14 13 13 13 12 4
3 6 5 2 8 14 12 6 4 4 4 3 9 11 14 17 12 11 11 10 7 5 7 9 7 6 3 2 1 1 2 2 3 5 4 4 4 4 4 4 4 4 8 4 5 6 3 7 5
5 4 6 6 7 8 13 5 5 4 4 12 12 11 14 16 11 9 10 10 8 8 8 9 8 7 6 3 3 3 1 1 2 3 5 4 2 3 4 3 5 5 5 6 6 4 6 6 6
4 6 5 10 8 7 7 4 5 10 11 13 14 15 14 13 12 9 9 9 8 9 8 9 9 7 6 6 4 4 6 6 6 6 7 5 5 4 4 5 5 5 5 6 6 6 6 7 9
6 7 14 8 6 7 11 8 3 4 12 13 14 13 12 12 10 8 9 9 9 7 8 7 9 8 6 6 6 6 6 6 6 6 6 8 5 4 5 5 6 6 6 6 5 5 5 5 6
14 14 7 5 6 4 12 3 3 11 12 13 13 12 12 10 10 10 7 8 7 6 6 8 7 7 7 5 6 6 6 6 7 6 8 9 8 7 7 6 6 6 6 7 5 5 4 4 4
6 6 6 5 5 3 3 7 6 9 13 11 12 11 10 9 8 7 7 7 6 6 7 6 6 6 6 7 5 6 6 6 5 5 6 10 10 9 7 6 6 5 5 6 6 7 6 6 7
4 7 4 5 7 2 3 5 9 8 11 11 10 11 11 10 8 7 6 5 6 6 6 7 6 7 6 7 6 5 7 6 7 6 7 10 10 9 7 6 6 6 6 7 7 5 6 6 7
6 7 1 14 16 10 5 7 13 14 11 11 9 9 10 9 8 7 8 6 5 6 6 6 5 8 6 5 5 6 7 7 8 8 9 11 10 11 8 8 9 8 7 7 8 7 7 4 8
4 5 7 16 4 7 14 6 15 13 8 11 9 9 9 9 7 8 8 7 5 5 8 8 9 8 6 4 3 4 6 6 8 9 11 12 11 11 11 7 8 8 9 9 10 7 8 6 11
4 6 8 6 6 9 6 5 6 11 5 11 13 10 11 10 8 8 6 6 7 6 7 8 8 9 7 4 3 3 2 4 4 7 10 10 11 11 10 9 8 9 7 9 10 10 5 4 8
5 5 6 7 4 5 9 3 7 6 4 7 8 9 11 14 13 8 7 6 6 7 5 7 7 8 8 7 3 3 3 4 5 6 7 8 10 10 10 10 8 8 8 8 8 9 10 6 4
7 8 9 8 7 7 6 6 8 12 8 11 11 10 11 10 8 6 7 6 7 6 6 6 7 7 6 6 7 9 5 7 2 3 3 5 7 8 9 8 8 7 6 8 8 7 6 6 8
11 9 10 9 9 6 6 1 7 15 10 18 13 13 12 10 11 10 7 7 6 6 6 6 7 8 7 7 7 6 7 4 3 3 6 6 5 6 7 6 6 6 5 6 6 6 7 5 4
8 5 7 6 5 4 11 14 6 16 29 20 12 15 14 12 10 8 6 7 6 5 6 6 7 5 6 7 7 8 8 6 5 4 4 3 3 4 5 5 5 5 5 5 4 6 6 5 4
4 5 4 4 1 7 8 5 7 9 8 21 20 19 16 13 12 11 9 7 6 6 6 7 8 6 6 7 6 6 7 7 6 3 2 4 2 2 3 3 5 4 4 4 4 5 5 5 5
6 10 7 9 6 7 5 8 6 7 8 18 20 20 16 12 12 12 9 7 7 7 5 6 8 7 6 6 6 6 6 4 3 3 2 2 1 1 2 4 5 5 5 5 5 3 4 5 4
7 5 6 3 2 4 3 3 3 9 12 16 19 19 14 13 12 13 12 9 7 7 7 7 6 6 6 6 5 6 5 5 4 4 3 2 4 4 3 5 5 6 6 6 4 3 4 5 5
1 4 3 4 2 5 3 2 4 1 8 14 16 15 14 15 11 10 7 7 4 6 7 6 6 7 6 5 5 4 6 5 5 5 6 6 5 5 5 5 4 6 6 6 5 5 4 5 4
7 6 6 3 5 1 2 2 6 8 8 14 14 14 14 12 10 8 6 5 6 5 8 6 6 6 6 5 4 5 5 6 6 5 3 3 4 5 5 4 4 5 6 5 5 5 6 6 7
6 4 4 3 4 2 5 5 6 9 8 11 15 14 10 10 9 9 11 9 7 8 9 8 5 5 5 5 4 5 5 5 5 3 3 3 4 4 4 4 3 4 4 4 5 6 6 6 8
Wind_Direction
153 139 126 107 36 64 21 358 202 295 34 346 19 31 81 30 49 180 106 111 126 132 146 143 142 139 134 136 133 126 119 113 108 106 103 98 98 98 97 92 87 84 78 75 76 74 74 71 71
123 101 35 26 50 42 157 139 327 68 183 195 35 41 43 49 59 111 94 124 120 127 123 141 146 138 142 140 137 130 121 116 111 106 102 99 96 98 96 91 92 89 83 76 66 72 75 64 56
136 118 88 98 102 179 219 164 88 324 347 21 83 33 90 90 124 120 126 131 116 116 129 155 148 145 144 142 141 133 126 124 118 115 111 108 106 99 89 86 80 83 55 357 355 34 39 57 27
143 11 29 77 311 44 264 164 138 345 341 2 62 61 73 166 137 142 134 128 129 138 146 149 148 146 147 146 143 140 136 128 128 126 126 127 129 128 125 115 108 300 276 290 295 299 335 23 314
46 58 56 95 147 287 297 153 147 97 339 311 273 90 63 18 110 128 133 139 146 146 144 145 150 149 150 148 147 147 142 139 140 138 140 151 157 170 180 211 238 263 273 278 286 291 299 317 276
48 97 66 25 84 116 342 26 33 110 255 147 118 107 52 142 129 140 142 149 153 149 143 153 153 152 154 155 157 157 158 165 163 160 159 177 193 217 241 256 265 272 277 283 285 288 289 277 274
123 90 161 161 187 129 175 63 185 150 215 316 67 82 132 156 137 129 128 120 117 108 111 121 141 160 160 163 167 166 168 172 171 178 185 200 217 240 257 266 274 278 277 279 283 288 294 286 283
110 92 138 200 205 218 146 81 266 126 219 299 296 153 176 163 139 108 97 78 71 54 59 58 60 117 157 184 184 181 183 189 194 209 224 237 246 253 265 274 277 274 275 280 281 284 285 284 280
121 79 176 198 182 182 131 155 76 347 250 24 348 82 115 117 112 103 105 90 110 77 48 69 128 26 32 282 256 211 216 218 219 223 235 248 258 275 280 273 271 273 275 274 277 280 284 287 290
102 114 208 191 194 162 143 146 164 180 143 95 67 59 88 109 116 107 104 84 63 45 40 20 3 299 231 247 221 253 292 300 297 293 281 285 272 270 275 284 289 285 285 283 284 287 290 293 268
142 167 204 22 125 137 154 160 209 179 66 8 113 93 82 89 86 91 89 80 74 48 41 22 17 10 356 284 281 266 240 256 272 277 311 313 309 315 312 300 309 329 331 328 328 315 303 300 299
94 132 175 183 128 122 143 125 90 56 86 100 94 93 89 80 72 71 75 71 63 46 26 23 17 18 12 23 40 1 60 297 359 5 360 323 315 310 315 345 358 11 1 4 351 343 329 321 312
117 190 166 137 112 115 100 74 132 93 95 92 93 80 77 80 72 59 58 57 55 43 21 16 14 13 7 31 15 43 58 56 53 45 33 28 40 31 29 24 12 13 11 15 3 352 355 353 341
165 149 138 138 149 123 128 151 95 140 116 95 90 85 79 77 83 67 48 50 47 34 24 8 18 5 16 35 25 51 55 48 54 47 34 34 35 36 48 41 27 22 19 2 355 352 346 346 331
113 105 62 129 141 134 148 40 124 146 121 108 101 99 95 88 80 85 78 60 52 30 23 18 26 3 20 29 47 50 52 52 51 46 40 41 40 48 47 38 24 17 15 9 2 353 339 351 352
90 50 113 241 192 197 264 207 150 154 127 124 123 116 104 93 94 86 82 80 68 53 38 32 24 13 25 35 43 57 49 54 40 33 41 48 46 41 42 37 28 9 23 19 11 0 350 358 353
319 156 163 173 224 169 251 223 178 172 148 150 142 133 127 118 104 102 90 77 68 63 43 33 23 25 31 38 45 57 59 54 45 41 46 49 48 44 45 35 19 19 27 28 11 0 353 354 339
192 153 203 179 210 207 176 245 167 181 166 159 147 138 132 132 135 128 106 84 65 62 56 52 38 25 35 51 53 53 53 47 51 51 45 44 43 37 41 33 24 25 28 24 14 358 355 3 334
159 130 176 210 228 138 215 212 189 174 160 154 151 152 144 139 141 125 113 103 83 57 49 41 43 27 37 39 33 37 53 54 52 54 46 46 39 40 38 34 30 21 31 24 19 351 360 359 353
185 183 208 262 217 160 160 262 198 187 179 166 156 161 149 139 133 129 125 115 106 87 60 49 45 37 39 44 42 61 60 53 62 55 48 43 43 38 43 36 33 30 29 28 26 21 355 346 10
235 190 219 183 91 50 115 346 198 213 144 157 176 162 153 154 151 146 129 106 81 78 75 59 50 50 45 45 31 24 35 46 50 45 44 38 46 45 44 41 38 34 32 30 29 23 25 6 341
264 202 229 142 129 203 182 237 216 198 189 183 181 164 155 154 140 134 123 107 107 100 79 74 65 60 57 52 73 72 76 83 31 54 53 46 37 49 47 45 44 41 39 38 34 33 32 30 26
240 247 210 192 200 125 170 91 264 151 200 211 184 161 161 157 154 142 144 137 126 115 105 93 78 67 66 72 80 87 83 79 63 51 62 48 28 35 47 46 47 43 41 38 36 30 30 33 31
237 310 44 49 117 222 201 196 220 182 204 193 165 165 159 153 142 134 134 129 127 125 117 110 101 78 78 83 79 87 93 83 70 48 49 35 30 23 32 41 45 49 46 38 31 25 25 18 23
126 77 304 318 53 226 195 185 229 220 225 184 166 160 160 153 142 141 152 149 148 154 146 130 117 110 107 101 99 106 104 100 98 84 64 38 12 359 21 41 38 31 39 39 35 34 25 10 8
221 166 169 236 210 230 130 214 234 284 270 155 158 148 149 141 148 154 153 159 160 160 163 126 124 126 117 105 94 87 92 93 81 82 89 62 31 286 11 41 37 33 29 28 41 47 20 10 350
294 189 214 220 84 118 217 297 302 18 116 139 145 144 138 142 155 155 160 161 155 151 159 141 123 122 125 123 107 91 101 91 85 68 72 58 32 3 33 37 29 23 13 10 34 24 18 5 341
70 306 26 15 268 239 252 274 268 310 141 140 143 138 141 148 153 148 150 135 146 131 130 130 123 141 138 129 112 101 108 84 67 53 38 35 27 22 41 45 34 25 15 12 30 351 327 351 324
1 12 3 92 117 141 309 271 299 175 166 150 136 135 145 149 146 136 125 129 121 108 122 113 120 130 146 131 125 119 96 70 63 60 24 11 31 25 35 57 30 23 18 11 7 342 333 342 319
127 93 358 90 329 78 140 280 341 101 115 136 138 137 136 133 130 138 142 146 135 124 132 135 122 116 156 133 136 138 124 110 94 58 18 25 34 28 39 51 23 357 353 332 338 335 332 328 321